| time (UTC) | temp F | wind direction | speed knots | gust knots | rain 1hr in | rain 24hr in | rain mn in | humidity % | barometer mb |
| 20260506163024 | 52 | 86 | 0.9 | 7.0 | 0.00 | 0.15 | 0.00 | 48 | 1019.7 |
| 20260506161524 | 52 | 61 | 1.7 | 4.3 | 0.00 | 0.15 | 0.00 | 49 | 1019.6 |
| 20260506160022 | 53 | 165 | 0.0 | 4.3 | 0.00 | 0.15 | 0.00 | 48 | 1019.4 |
| 20260506154523 | 53 | 131 | 1.7 | 7.8 | 0.00 | 0.15 | 0.00 | 47 | 1019.3 |
| 20260506153021 | 52 | 77 | 1.7 | 5.2 | 0.00 | 0.15 | 0.00 | 50 | 1019.3 |
| 20260506151519 | 51 | 20 | 0.0 | 1.7 | 0.00 | 0.15 | 0.00 | 56 | 1019.3 |
| 20260506150015 | 50 | 91 | 0.0 | 0.9 | 0.00 | 0.15 | 0.00 | 56 | 1019.4 |
| 20260506144509 | 48 | 43 | 0.0 | 0.0 | 0.00 | 0.15 | 0.00 | 60 | 1019.1 |
| 20260506143012 | 43 | 284 | 0.0 | 0.0 | 0.00 | 0.15 | 0.00 | 73 | 1019.0 |
| 20260506141501 | 39 | 282 | 0.0 | 0.0 | 0.00 | 0.15 | 0.00 | 82 | 1018.7 |
| 20260506140059 | 0 | 0.0 | 0.0 | 0.00 | 0.15 | 0.00 | 1018.5 | ||
| 20260506134556 | 0 | 0.0 | 0.0 | 0.00 | 0.15 | 0.00 | 1018.3 | ||
| 20260506133052 | 0 | 0.0 | 0.0 | 0.00 | 0.15 | 0.00 | 1018.3 | ||
| 20260506131548 | 0 | 0.0 | 0.0 | 0.00 | 0.15 | 0.00 | 1018.2 | ||
| 20260506130043 | 0 | 0.0 | 0.0 | 0.00 | 0.15 | 0.00 | 1018.4 | ||
| 20260506124540 | 32 | 280 | 0.0 | 0.0 | 0.00 | 0.15 | 0.00 | 89 | 1018.6 |
| 20260506123036 | 32 | 280 | 0.0 | 0.0 | 0.00 | 0.15 | 0.00 | 88 | 1018.3 |
| 20260506121534 | 33 | 274 | 0.0 | 0.0 | 0.00 | 0.15 | 0.00 | 89 | 1018.2 |
| 20260506120041 | 33 | 282 | 0.0 | 0.0 | 0.00 | 0.15 | 0.00 | 89 | 1018.2 |
| 20260506114534 | 33 | 283 | 0.0 | 0.0 | 0.00 | 0.15 | 0.00 | 88 | 1018.1 |
| 20260506113034 | 33 | 283 | 0.0 | 0.0 | 0.00 | 0.15 | 0.00 | 88 | 1018.1 |
| 20260506111531 | 34 | 280 | 0.0 | 0.0 | 0.00 | 0.15 | 0.00 | 88 | 1017.9 |
| 20260506110032 | 33 | 281 | 0.0 | 0.0 | 0.00 | 0.15 | 0.00 | 88 | 1017.8 |
| 20260506104530 | 34 | 279 | 0.0 | 0.0 | 0.00 | 0.15 | 0.00 | 88 | 1017.7 |
| 20260506103030 | 34 | 280 | 0.0 | 0.0 | 0.00 | 0.15 | 0.00 | 89 | 1017.6 |
| 20260506101527 | 33 | 281 | 0.0 | 0.0 | 0.00 | 0.15 | 0.00 | 89 | 1017.6 |
| 20260506100027 | 34 | 281 | 0.0 | 0.0 | 0.00 | 0.15 | 0.00 | 88 | 1017.4 |
| 20260506094525 | 34 | 281 | 0.0 | 0.0 | 0.00 | 0.15 | 0.00 | 89 | 1017.3 |
| 20260506093023 | 34 | 280 | 0.0 | 0.0 | 0.00 | 0.15 | 0.00 | 88 | 1017.2 |
| 20260506091520 | 35 | 279 | 0.0 | 0.0 | 0.00 | 0.15 | 0.00 | 86 | 1017.2 |
| 20260506090024 | 36 | 279 | 0.0 | 0.0 | 0.00 | 0.15 | 0.00 | 83 | 1017.1 |
| 20260506084520 | 38 | 279 | 0.0 | 0.0 | 0.00 | 0.15 | 0.00 | 79 | 1017.0 |
| 20260506083017 | 38 | 279 | 0.0 | 0.0 | 0.00 | 0.15 | 0.00 | 78 | 1017.0 |
| 20260506081514 | 37 | 138 | 0.0 | 0.0 | 0.00 | 0.15 | 0.00 | 81 | 1017.1 |
| 20260506073008 | 36 | 281 | 0.0 | 0.0 | 0.00 | 0.15 | 0.15 | 82 | 1016.9 |
| 20260506071505 | 35 | 275 | 0.0 | 0.0 | 0.00 | 0.15 | 0.15 | 85 | 1016.7 |
| 20260506061504 | 36 | 277 | 0.0 | 0.0 | 0.00 | 0.15 | 0.15 | 84 | 1016.3 |
| 20260506050115 | 37 | 282 | 0.0 | 0.9 | 0.00 | 0.15 | 0.15 | 81 | 1015.5 |
| 20260506044558 | 37 | 283 | 0.0 | 0.9 | 0.00 | 0.15 | 0.15 | 83 | 1015.4 |
| 20260506043105 | 38 | 288 | 0.0 | 0.9 | 0.00 | 0.15 | 0.15 | 81 | 1015.3 |
| 20260506041557 | 38 | 230 | 0.0 | 4.3 | 0.00 | 0.15 | 0.15 | 80 | 1015.2 |
| 20260506040104 | 38 | 186 | 0.0 | 3.5 | 0.00 | 0.15 | 0.15 | 81 | 1015.0 |
| 20260506034604 | 38 | 277 | 0.0 | 0.9 | 0.00 | 0.15 | 0.15 | 80 | 1014.9 |
| 20260506033053 | 38 | 277 | 0.0 | 0.9 | 0.00 | 0.15 | 0.15 | 80 | 1014.6 |
| 20260506031553 | 38 | 277 | 0.0 | 1.7 | 0.00 | 0.15 | 0.15 | 79 | 1014.3 |
| 20260506030054 | 40 | 279 | 0.0 | 2.6 | 0.00 | 0.15 | 0.15 | 76 | 1013.9 |
| 20260506024555 | 41 | 142 | 0.0 | 1.7 | 0.00 | 0.15 | 0.15 | 73 | 1013.7 |
| 20260506023046 | 42 | 311 | 0.0 | 0.9 | 0.00 | 0.15 | 0.15 | 67 | 1013.6 |
| 20260506021558 | 44 | 78 | 0.0 | 4.3 | 0.00 | 0.15 | 0.15 | 64 | 1013.4 |
| 20260506020043 | 47 | 287 | 0.0 | 2.6 | 0.00 | 0.15 | 0.15 | 55 | 1013.2 |
| 20260506014543 | 47 | 33 | 0.0 | 4.3 | 0.00 | 0.15 | 0.15 | 54 | 1013.1 |
| 20260506013052 | 48 | 15 | 0.0 | 4.3 | 0.00 | 0.15 | 0.15 | 54 | 1013.0 |
| 20260506011545 | 48 | 265 | 0.9 | 6.1 | 0.00 | 0.15 | 0.15 | 57 | 1012.9 |
| 20260506010041 | 48 | 80 | 1.7 | 5.2 | 0.00 | 0.15 | 0.15 | 55 | 1012.8 |
| 20260506004540 | 48 | 54 | 1.7 | 4.3 | 0.00 | 0.15 | 0.15 | 56 | 1012.8 |
| 20260506003040 | 48 | 248 | 0.9 | 3.5 | 0.00 | 0.15 | 0.15 | 56 | 1012.7 |
| 20260506001539 | 46 | 202 | 0.0 | 4.3 | 0.00 | 0.15 | 0.15 | 60 | 1012.7 |
| 20260506000039 | 45 | 199 | 0.0 | 2.6 | 0.00 | 0.15 | 0.15 | 65 | 1012.7 |
| 20260505234534 | 45 | 202 | 0.9 | 6.1 | 0.00 | 0.15 | 0.15 | 66 | 1012.5 |
| 20260505233036 | 45 | 221 | 1.7 | 6.1 | 0.00 | 0.15 | 0.15 | 64 | 1012.6 |
| 20260505231535 | 44 | 78 | 1.7 | 6.1 | 0.00 | 0.15 | 0.15 | 66 | 1012.7 |
| 20260505230036 | 44 | 138 | 0.0 | 5.2 | 0.00 | 0.15 | 0.15 | 67 | 1012.5 |
| 20260505224529 | 44 | 65 | 0.9 | 5.2 | 0.00 | 0.15 | 0.15 | 66 | 1012.6 |
| 20260505223033 | 43 | 342 | 3.5 | 9.6 | 0.00 | 0.16 | 0.15 | 67 | 1012.4 |
| 20260505221527 | 43 | 284 | 1.7 | 10.4 | 0.00 | 0.16 | 0.15 | 73 | 1012.2 |
| 20260505220025 | 42 | 245 | 3.5 | 9.6 | 0.00 | 0.16 | 0.15 | 74 | 1012.2 |
| 20260505214531 | 42 | 290 | 1.7 | 5.2 | 0.01 | 0.16 | 0.15 | 74 | 1012.2 |
| 20260505213026 | 42 | 71 | 0.0 | 2.6 | 0.02 | 0.21 | 0.15 | 76 | 1012.3 |
| 20260505211526 | 42 | 83 | 0.0 | 4.3 | 0.02 | 0.21 | 0.15 | 76 | 1012.3 |
| 20260505210025 | 43 | 123 | 0.9 | 7.0 | 0.04 | 0.21 | 0.15 | 71 | 1012.2 |
| 20260505204524 | 43 | 137 | 0.9 | 6.1 | 0.05 | 0.21 | 0.15 | 76 | 1012.2 |
| 20260505203020 | 40 | 128 | 3.5 | 7.8 | 0.07 | 0.25 | 0.14 | 81 | 1012.3 |
| 20260505201518 | 40 | 125 | 0.9 | 4.3 | 0.08 | 0.24 | 0.13 | 83 | 1012.5 |
| 20260505200016 | 39 | 89 | 0.9 | 7.8 | 0.08 | 0.23 | 0.12 | 86 | 1012.6 |
| 20260505194516 | 39 | 120 | 0.9 | 4.3 | 0.08 | 0.21 | 0.10 | 88 | 1012.8 |
| 20260505193012 | 38 | 76 | 0.0 | 1.7 | 0.08 | 0.20 | 0.08 | 90 | 1013.0 |
| 20260505191512 | 37 | 28 | 0.0 | 4.3 | 0.06 | 0.18 | 0.06 | 88 | 1012.7 |
| 20260505190017 | 37 | 300 | 0.9 | 3.5 | 0.04 | 0.16 | 0.04 | 88 | 1012.5 |
| 20260505184511 | 37 | 263 | 0.0 | 0.9 | 0.03 | 0.15 | 0.03 | 88 | 1012.4 |
| 20260505183008 | 35 | 260 | 0.0 | 0.0 | 0.01 | 0.13 | 0.01 | 91 | 1012.3 |
| 20260505181503 | 35 | 24 | 0.0 | 0.9 | 0.00 | 0.12 | 0.00 | 90 | 1012.1 |
| 20260505180002 | 35 | 292 | 0.0 | 2.6 | 0.00 | 0.12 | 0.00 | 89 | 1012.0 |
| 20260505174605 | 35 | 63 | 0.0 | 2.6 | 0.00 | 0.12 | 0.00 | 89 | 1011.6 |
| 20260505173058 | 35 | 215 | 0.0 | 0.0 | 0.00 | 0.12 | 0.00 | 86 | 1011.2 |
| 20260505171557 | 35 | 215 | 0.0 | 0.0 | 0.00 | 0.12 | 0.00 | 87 | 1010.9 |
| 20260505170054 | 34 | 215 | 0.0 | 0.9 | 0.00 | 0.12 | 0.00 | 88 | 1010.9 |
| 20260505164600 | 34 | 215 | 0.0 | 3.5 | 0.00 | 0.12 | 0.00 | 90 | 1010.6 |